Flag for U.S.A. Weather past 2 weeks in Chico, California, U.S.A.

Now
68 °F

Clear.


Feels Like: 68 °F
Forecast: 59 / 85 °F
Wind: 7 mph from Southeast

Location: Chico Municipal

Current Time: Apr 28, 2015 at 12:13:09 AM

Latest Report: Apr 27, 2015 at 11:35 PM


Visibility: 10 mi

Pressure: 29.91 "Hg

Humidity: 49%

Dew point: 48 °F

Location of ChicoLocation

Historic Weather in Chico — Graph

°F

Chico temperature yesterday

Maximum temperature yesterday: 88 °F (at 3:50 PM)
Minimum temperature yesterday: 52 °F (at 5:55 AM)
Average temperature yesterday: 68 °F

Past Weeks' High & Low Weather Summary

 TemperatureHumidityPressure
High90 °F (Apr 19, 3:47 PM)100% (Apr 25, 12:15 AM)30.35 "Hg (Apr 25, 12:15 AM)
Low41 °F (Apr 15, 6:15 AM)13% (Apr 16, 3:49 PM)29.71 "Hg (Apr 20, 5:47 PM)
Average62 °F50%29.95 "Hg
* Reported Apr 12 11:15 PM — Apr 27 11:15 PM, Chico, Weather by CustomWeather, © 2015

Note: Actual official high and low records may vary slightly from our data, if they occured in-between our weather recording intervals... More about our weather records

Advertising

Chico weather history for previous 24 hours

 ConditionsComfort  
Time TempWeatherWind HumidityBarometerVisibility
11:15 PM
Mon, Apr 27
70 °FClear.No wind46%29.91 "Hg10 mi
10:55 PM72 °FClear.No wind47%29.91 "Hg10 mi
10:35 PM72 °FClear.No wind44%29.91 "Hg10 mi
10:15 PM73 °FClear.No wind38%29.91 "Hg10 mi
9:55 PM73 °FClear.No wind38%29.90 "Hg10 mi
9:35 PM73 °FClear.7 mph41%29.90 "Hg10 mi
9:15 PM75 °FClear.7 mph39%29.90 "Hg10 mi
8:35 PM77 °FSunny.No wind36%29.89 "Hg10 mi
8:15 PM81 °FSunny.No wind30%29.88 "Hg10 mi
7:55 PM81 °FSunny.No wind34%29.88 "Hg10 mi
7:35 PM82 °FSunny.No wind32%29.87 "Hg10 mi
7:15 PM84 °FSunny.6 mph25%29.87 "Hg10 mi
6:55 PM86 °FSunny.7 mph24%29.88 "Hg10 mi
5:47 PM88 °FScattered clouds.12 mph19%29.89 "Hg80 mi
3:50 PM88 °FScattered clouds.17 mph19%29.92 "Hg80 mi
2:50 PM86 °FScattered clouds.17 mph22%29.94 "Hg80 mi
1:50 PM84 °FScattered clouds.12 mph25%29.97 "Hg80 mi
11:50 AM81 °FScattered clouds.9 mph30%30.02 "Hg80 mi
10:49 AM75 °FScattered clouds.9 mph39%30.04 "Hg80 mi
9:47 AM72 °FScattered clouds.6 mph41%30.06 "Hg80 mi
8:50 AM66 °FScattered clouds.No wind52%30.07 "Hg80 mi
7:50 AM61 °FScattered clouds.No wind59%30.07 "Hg80 mi
6:50 AM54 °FPassing clouds.No wind77%30.06 "Hg80 mi
6:35 AM57 °FClear.No wind59%30.06 "Hg10 mi
6:15 AM55 °FClear.No wind67%30.06 "Hg10 mi
5:55 AM52 °FClear.No wind82%30.06 "Hg10 mi
5:35 AM55 °FClear.No wind67%30.06 "Hg10 mi
5:15 AM55 °FClear.No wind67%30.06 "Hg10 mi
4:55 AM55 °FClear.No wind72%30.06 "Hg10 mi
4:35 AM57 °FClear.No wind63%30.06 "Hg10 mi
4:15 AM57 °FClear.No wind67%30.06 "Hg10 mi
3:55 AM57 °FClear.No wind67%30.05 "Hg10 mi
3:35 AM57 °FClear.No wind67%30.06 "Hg10 mi
3:15 AM57 °FClear.No wind67%30.05 "Hg10 mi
2:55 AM59 °FClear.No wind63%30.05 "Hg10 mi
2:35 AM59 °FClear.No wind63%30.06 "Hg10 mi
2:15 AM59 °FClear.No wind63%30.05 "Hg10 mi
1:55 AM59 °FClear.No wind59%30.06 "Hg10 mi
1:35 AM61 °FClear.No wind59%30.05 "Hg10 mi
1:15 AM61 °FClear.No wind59%30.06 "Hg10 mi
12:55 AM63 °FClear.No wind52%30.05 "Hg10 mi
12:35 AM63 °FClear.No wind52%30.05 "Hg10 mi
12:15 AM64 °FClear.3 mph46%30.05 "Hg10 mi
Weather by CustomWeather, © 2015

See weather overviewHow to use our weather pages